Regional Weather Roundup
Issued by NWS

Home | Current Version | Previous Version | Text Only | Print | Product List | Glossary Off
Versions: 1 2 3 4 5 6 7 8 9 10 11 12 13 14 15 16 17 18 19 20 21 22 23 24 25 26 27

000
ASUS45 KCYS 221310
RWRWY

WYOMING REGIONAL WEATHER ROUNDUP
NATIONAL WEATHER SERVICE CHEYENNE WY
700 AM MDT SUN APR 22 2018

NOTE:  "FAIR" INDICATES FEW OR NO CLOUDS BELOW 12,000 FEET
WITH NO SIGNIFICANT WEATHER AND/OR OBSTRUCTIONS TO VISIBILITY.

WYZ001-221400-
YELLOWSTONE NATIONAL PARK

CITY           SKY/WX    TMP DP  RH WIND       PRES   REMARKS
LK YELLOWSTONE   N/A     22  20  92 CALM      30.25R
W YELLOWSTONE  NOT AVBL

$$
WYZ002>013-054>058-071-098>099-221400-
NORTHERN WYOMING

CITY           SKY/WX    TMP DP  RH WIND       PRES   REMARKS
JACKSON        FAIR      27  24  89 NE3       30.22R
CODY           FAIR      36  26  67 S8        30.15F WCI  30
GREYBULL       FAIR      42  32  67 NW7       30.11R
WORLAND        FAIR      39  33  79 S10       30.12R WCI  32
SHERIDAN       FAIR      36  30  79 S6        30.19F WCI  31
BUFFALO        FAIR      43  25  49 NW13      30.20S
GILLETTE       FAIR      38  35  89 NW5       30.16R WCI  34
HULETT         FAIR      37  34  87 SW3       30.17R
NEWCASTLE      FAIR      34  32  93 N3        30.17S

$$
WYZ014>020-022>026-101>103-221400-
CENTRAL WYOMING

CITY           SKY/WX    TMP DP  RH WIND       PRES   REMARKS
BIG PINEY      FAIR      22  17  81 CALM      30.24R
PINEDALE       FAIR      23  21  93 NW3       30.24R
DUBOIS         FAIR      32  21  64 NW10      30.20R WCI  24
LANDER         FAIR      42  25  50 CALM      30.13R
RIVERTON       FAIR      39  26  59 CALM      30.14R
CASPER         FAIR      36  34  92 S6        30.20R WCI  31
DOUGLAS        FOG       31  31 100 NW10      30.18R VSB<1/4 WCI  22

$$
WYZ021-027>030-104>119-221400-
SOUTHERN WYOMING

CITY           SKY/WX    TMP DP  RH WIND       PRES   REMARKS
EVANSTON       FAIR      37  25  61 SE8       30.24S WCI  31
KEMMERER       FAIR      32  25  74 N5        30.25R WCI  27
FORT BRIDGER   FAIR      41  26  55 SW6       30.27S
ROCK SPRINGS   FAIR      36  26  67 S7        30.23R WCI  30
DIXON          FAIR      29  27  91 CALM      30.27S
RAWLINS          N/A    N/A N/A N/A MISG      30.21R
SARATOGA       FAIR      30  30 100 CALM      30.23S
LARAMIE        FAIR      27  27 100 S3        30.20R
CHEYENNE       FAIR      32  30  92 W6        30.16R WCI  26
TORRINGTON     CLOUDY    32  32 100 CALM      30.17R FOG
PINE BLUFFS    CLOUDY    30  30 100 MISG      30.18R VSB<1/4

$$




USA.gov is the U.S. government's official web portal to all federal, state and local government web resources and services.